Regional Weather Roundup
Issued by NWS

Home | Current Version | Previous Version | Graphics & Text | Print | Product List | Glossary On
Versions: 1 2 3 4 5 6 7 8 9 10 11 12 13 14 15 16 17 18 19 20 21 22 23 24 25 26 27 28 29 30 31 32 33 34 35 36 37 38 39 40 41 42 43 44 45 46 47 48 49 50
000
ASUS45 KBOI 190910
RWRID
WEATHER ROUNDUP FOR IDAHO
NATIONAL WEATHER SERVICE BOISE ID
300 AM MDT SUN APR 19 2015

NOTE: "FAIR" INDICATES FEW OR NO CLOUDS BELOW 12000 FEET
WITH NO SIGNIFICANT WEATHER AND/OR OBSTRUCTIONS TO VISIBILITY

IDZ012-014-191000-
SOUTHWEST IDAHO


CITY           SKY/WX    TMP DP  RH WIND       PRES   REMARKS
BOISE          CLEAR     46  24  42 SW6       30.08S
CALDWELL       CLEAR     46  21  36 W15       30.12F
MOUNTAIN HOME  CLEAR     48  22  36 W18       30.07R
$$

IDZ016-017-191000-
SOUTHCENTRAL IDAHO


CITY           SKY/WX    TMP DP  RH WIND       PRES   REMARKS
BURLEY         CLEAR     43  31  62 NE3       30.10R
JEROME         CLEAR     44  22  41 CALM      30.10R
TWIN FALLS     CLEAR     49  19  30 SW10      30.10R
$$

IDZ019>023-191000-
SOUTHEAST IDAHO


CITY           SKY/WX    TMP DP  RH WIND       PRES   REMARKS
IDAHO FALLS    CLEAR     42  25  50 N16       30.14S
POCATELLO      CLEAR     39  29  67 NE3       30.12S
REXBURG        CLEAR     38  24  57 NE7       30.16R WCI  33
$$

IDZ006-010-011-018-031-032-191000-
CENTRAL IDAHO MOUNTAINS


CITY           SKY/WX    TMP DP  RH WIND       PRES   REMARKS
MCCALL         CLEAR     40  23  50 N6        30.17F
HAILEY         PTCLDY    41  27  56 CALM      30.15R
STANLEY          N/A     27  17  66 CALM      30.20F
SALMON         CLEAR     37  25  60 CALM      30.16R
CHALLIS        CLEAR     40  15  36 CALM      30.17R
$$

IDZ002-004-006-007-026-191000-
NORTHERN IDAHO


CITY           SKY/WX    TMP DP  RH WIND       PRES   REMARKS
LEWISTON       CLEAR     47  27  45 S3        30.17S
LOWELL           N/A     41  36  82 CALM      30.23F
COEUR D`ALENE  CLEAR     36  23  60 NE3       30.18S
MULLAN PASS    CLEAR     38  13  35 VRB3      30.18F
$$



USA.gov is the U.S. government's official web portal to all federal, state and local government web resources and services.